GW5335 Weather Reports


time (UTC)temp
F
wind
direction
speed
knots
gust
knots
rain 1hr
in
rain 24hr
in
rain mn
in
humidity
%
barometer
mb
20260504204236 60 0.0 0.0 0.00 0.00 0.00 41
20260504203223 60 0.0 0.0 0.00 0.00 0.00 41
20260504202224 60 0.0 0.0 0.00 0.00 0.00 41
20260504201223 60 0.0 0.0 0.00 0.00 0.00 40
20260504200223 60 0.0 0.0 0.00 0.00 0.00 39
20260504195223 61 0.0 0.0 0.00 0.00 0.00 39
20260504194223 60 0.0 0.0 0.00 0.00 0.00 39
20260504193223 60 0.0 0.0 0.00 0.00 0.00 39
20260504192223 60 0.0 0.0 0.00 0.00 0.00 40
20260504191223 60 0.0 0.0 0.00 0.00 0.00 39
20260504190223 60 0.0 0.0 0.00 0.00 0.00 40
20260504185223 60 0.0 0.0 0.00 0.00 0.00 40
20260504184223 61 0.0 0.0 0.00 0.00 0.00 40
20260504183223 61 0.0 0.0 0.00 0.00 0.00 40
20260504182223 62 0.0 0.0 0.00 0.00 0.00 39
20260504181224 63 0.0 0.0 0.00 0.00 0.00 37
20260504180223 65 0.0 0.0 0.00 0.00 0.00 35
20260504175223 67 0.0 0.0 0.00 0.00 0.00 33
20260504174223 69 0.0 0.0 0.00 0.00 0.00 32
20260504173223 69 0.0 0.0 0.00 0.00 0.00 30
20260504172223 70 0.0 0.0 0.00 0.00 0.00 30
20260504171223 71 0.0 0.0 0.00 0.00 0.00 29
20260504170223 71 0.0 0.0 0.00 0.00 0.00 28
20260504160224 74 0.0 0.0 0.00 0.00 0.00 26
20260504150224 74 0.0 0.0 0.00 0.00 0.00 26
20260504141224 74 186 0.0 0.9 0.00 0.00 0.00 25
20260504140244 75 270 0.0 1.7 0.00 0.00 0.00 25
20260504130224 75 252 0.0 1.7 0.00 0.00 0.00 26
20260504120223 74 138 0.9 1.7 0.00 0.00 0.00 27
20260504110223 72 0.0 0.0 0.00 0.00 0.00 28
20260504100223 71 228 0.9 1.7 0.00 0.00 0.00 29
20260504081223 66 69 0.9 3.5 0.00 0.00 0.00 32
20260504080244 66 0.0 0.0 0.00 0.00 0.00 32
20260504070223 63 222 0.0 1.7 0.00 0.00 0.00 36
20260504060223 66 0.0 0.0 0.00 0.00 0.00 35
20260504050244 54 0.0 0.0 0.00 0.00 0.00 55
20260504045224 54 0.0 0.0 0.00 0.00 0.00 55
20260504044224 55 0.0 0.0 0.00 0.00 0.00 56
20260504043244 54 0.0 0.0 0.00 0.00 0.00 55
20260504042223 54 0.0 0.0 0.00 0.00 0.00 58
20260504041244 52 0.0 0.0 0.00 0.00 0.00 56
20260504040224 51 0.0 0.0 0.00 0.00 0.00 59
20260504035223 51 0.0 0.0 0.00 0.00 0.00 58
20260504034224 51 0.0 0.0 0.00 0.00 0.00 56
20260504033224 51 0.0 0.0 0.00 0.00 0.00 55
20260504032244 52 0.0 0.0 0.00 0.00 0.00 54
20260504031224 53 0.0 0.0 0.00 0.00 0.00 52
20260504030244 53 0.0 0.0 0.00 0.00 0.00 52
20260504025224 53 0.0 0.0 0.00 0.00 0.00 51
20260504024224 53 0.0 0.0 0.00 0.00 0.00 51
20260504023224 53 0.0 0.0 0.00 0.00 0.00 51
20260504022344 53 0.0 0.0 0.00 0.00 0.00 52
20260504021244 53 0.0 0.0 0.00 0.00 0.00 51
20260504020224 53 0.0 0.0 0.00 0.00 0.00 52
20260504015224 53 74 0.0 1.7 0.00 0.00 0.00 52
20260504014224 53 74 0.0 0.9 0.00 0.00 0.00 52
20260504013224 53 0.0 0.0 0.00 0.00 0.00 52
20260504012224 54 0.0 0.0 0.00 0.00 0.00 52
20260504011224 53 0.0 0.0 0.00 0.00 0.00 52
20260504010224 54 0.0 0.0 0.00 0.00 0.00 52
20260504005224 53 0.0 0.0 0.00 0.00 0.00 53
20260504004224 54 0.0 0.0 0.00 0.00 0.00 53
20260504003244 54 0.0 0.0 0.00 0.00 0.00 53
20260504002224 54 0.0 0.0 0.00 0.00 0.00 52
20260504001224 54 0.0 0.0 0.00 0.00 0.00 52
20260504000244 54 0.0 0.0 0.00 0.00 0.00 53
20260503235245 54 0.0 0.0 0.00 0.00 0.00 54
20260503234224 55 0.0 0.0 0.00 0.00 0.00 52
20260503233244 55 0.0 0.0 0.00 0.00 0.00 53
20260503232224 55 0.0 0.0 0.00 0.00 0.00 53
20260503231224 55 0.0 0.0 0.00 0.00 0.00 53
20260503230224 55 0.0 0.0 0.00 0.00 0.00 54
20260503225224 55 0.0 0.0 0.00 0.00 0.00 53
20260503224224 55 0.0 0.0 0.00 0.00 0.00 53
20260503223224 55 0.0 0.0 0.00 0.00 0.00 51
20260503222224 55 0.0 0.0 0.00 0.00 0.00 51
20260503221224 55 0.0 0.0 0.00 0.00 0.00 50
20260503220224 55 0.0 0.0 0.00 0.00 0.00 50
20260503215224 54 0.0 0.0 0.00 0.00 0.00 51
20260503214224 50 0.0 0.0 0.00 0.00 0.00 55
20260503213224 47 0.0 0.0 0.00 0.00 0.00 71
20260503212224 46 0.0 0.0 0.00 0.00 0.00 75
20260503211224 46 0.0 0.0 0.00 0.00 0.00 76
20260503210224 46 0.0 0.0 0.00 0.00 0.00 76
20260503205244 46 0.0 0.0 0.00 0.00 0.00 76